Location: Riverside Cemetery
(38.3047°N, 99.7773°W)
Time: 11:43:30
(UTC+00:00)

Cosmos 1603 - Pass Details

Date: 19 September 2020
Orbit: 832 x 858 km, 71.0° (Epoch: 30 October)

Event Time Altitude Azimuth Distance (km) Brightness Sun altitude
Rises 01:11:13 0° 341° (NNW) 3,413 7.2 -6.7°
Reaches altitude 10° 01:13:45 10° 346° (NNW) 2,470 6.4 -7.1°
Maximum altitude 01:19:18 55° 64° (ENE) 1,005 3.8 -8.2°
Drops below altitude 10° 01:24:47 10° 142° (SE) 2,440 5.7 -9.3°
Sets 01:27:15 0° 147° (SSE) 3,368 6.4 -9.8°
